GSAT-9

Last updated on Wed Sep 09 2026 00:03:01 GMT+0000 (Coordinated Universal Time)

1 42695U 17024A 26251.46440657 -.00000307 00000+0 00000+0 0 9991 2 42695 0.0173 131.5099 0002694 41.9896 78.5421 1.00270444 34135
UTC large
Height (km)
Speed (km/s)
/
Latitude / Longitude
Inclination (degrees)
Orbital Period (minutes)
Azimuth
Elevation
Range (km)
Doppler Factor

Next 0 passes for location: London (51.5072 / 0.1276)

No passes found over London.
GSAT-9